Back to catalog

STARLINK-36473

AliveCommunicationsVLEO
NORAD 67325·PAYLOAD·🇺🇸 United States

Launched Jan 4, 2026 from Cape Canaveral Space Force Station

Loading…

Next Passes (next 24 hours)

TLE

FreshSource: CelesTrak SupGP

Epoch: Sep 14, 2026, 22:42 UTC

1 67325C 26002W   26257.94631944 -.00016164  00000+0 -58541-3 0  2577
2 67325  43.0035 336.3219 0001511 270.6372 125.8856 15.27588680    18

Track STARLINK-36473 in real time with AllMySat

Download on the App Store